Year,Month,Day,Hour,Minute,Value (Times are PST for windspeed in km/hr)
2020,01,11,00,00,0.00
2020,01,11,00,01,0.00
2020,01,11,00,02,0.00
2020,01,11,00,03,0.00
2020,01,11,00,04,0.00
2020,01,11,00,05,0.00
2020,01,11,00,06,0.00
2020,01,11,00,07,0.00
2020,01,11,00,08,0.00
2020,01,11,00,09,0.00
2020,01,11,00,10,0.00
2020,01,11,00,11,0.00
2020,01,11,00,12,0.00
2020,01,11,00,13,0.00
2020,01,11,00,14,0.00
2020,01,11,00,15,0.00
2020,01,11,00,16,0.00
2020,01,11,00,17,0.00
2020,01,11,00,18,0.00
2020,01,11,00,19,0.00
2020,01,11,00,20,0.00
2020,01,11,00,21,0.00
2020,01,11,00,22,0.00
2020,01,11,00,23,0.00
2020,01,11,00,24,0.00
2020,01,11,00,25,0.00
2020,01,11,00,26,0.00
2020,01,11,00,27,0.00
2020,01,11,00,28,0.00
2020,01,11,00,29,0.00
2020,01,11,00,30,0.00
2020,01,11,00,31,0.00
2020,01,11,00,32,0.00
2020,01,11,00,33,0.00
2020,01,11,00,34,0.00
2020,01,11,00,35,0.00
2020,01,11,00,36,0.00
2020,01,11,00,37,0.00
2020,01,11,00,38,0.00
2020,01,11,00,39,0.00
2020,01,11,00,40,0.00
2020,01,11,00,41,0.00
2020,01,11,00,42,0.00
2020,01,11,00,43,0.00
2020,01,11,00,44,0.00
2020,01,11,00,45,0.00
2020,01,11,00,46,0.00
2020,01,11,00,47,0.00
2020,01,11,00,48,0.00
2020,01,11,00,49,0.00
2020,01,11,00,50,0.00
2020,01,11,00,51,0.00
2020,01,11,00,52,0.00
2020,01,11,00,53,0.00
2020,01,11,00,54,0.00
2020,01,11,00,55,0.00
2020,01,11,00,56,0.00
2020,01,11,00,57,0.00
2020,01,11,00,58,0.00
2020,01,11,00,59,0.00
2020,01,11,01,00,0.00
2020,01,11,01,01,0.00
2020,01,11,01,02,0.00
2020,01,11,01,03,0.00
2020,01,11,01,04,0.00
2020,01,11,01,05,0.00
2020,01,11,01,06,0.00
2020,01,11,01,07,0.00
2020,01,11,01,08,0.00
2020,01,11,01,09,0.00
2020,01,11,01,10,0.00
2020,01,11,01,11,0.00
2020,01,11,01,12,0.00
2020,01,11,01,13,0.00
2020,01,11,01,14,0.00
2020,01,11,01,15,0.00
2020,01,11,01,16,0.00
2020,01,11,01,17,0.00
2020,01,11,01,18,0.00
2020,01,11,01,19,0.00
2020,01,11,01,20,0.00
2020,01,11,01,21,0.00
2020,01,11,01,22,0.00
2020,01,11,01,23,0.00
2020,01,11,01,24,0.00
2020,01,11,01,25,0.00
2020,01,11,01,26,0.00
2020,01,11,01,27,0.00
2020,01,11,01,28,0.00
2020,01,11,01,29,0.00
2020,01,11,01,30,0.00
2020,01,11,01,31,0.00
2020,01,11,01,32,0.00
2020,01,11,01,33,0.00
2020,01,11,01,34,0.00
2020,01,11,01,35,0.00
2020,01,11,01,36,0.00
2020,01,11,01,37,0.00
2020,01,11,01,38,0.00
2020,01,11,01,39,0.00
2020,01,11,01,40,0.00
2020,01,11,01,41,0.00
2020,01,11,01,42,0.00
2020,01,11,01,43,0.00
2020,01,11,01,44,0.00
2020,01,11,01,45,0.00
2020,01,11,01,46,0.00
2020,01,11,01,47,0.00
2020,01,11,01,48,0.00
2020,01,11,01,49,0.00
2020,01,11,01,50,0.00
2020,01,11,01,51,0.00
2020,01,11,01,52,0.00
2020,01,11,01,53,0.00
2020,01,11,01,54,0.00
2020,01,11,01,55,0.00
2020,01,11,01,56,0.00
2020,01,11,01,57,0.00
2020,01,11,01,58,0.00
2020,01,11,01,59,0.00
2020,01,11,02,00,0.00
2020,01,11,02,01,0.00
2020,01,11,02,02,0.00
2020,01,11,02,03,0.00
2020,01,11,02,04,0.00
2020,01,11,02,05,0.00
2020,01,11,02,06,0.00
2020,01,11,02,07,0.00
2020,01,11,02,08,0.00
2020,01,11,02,09,0.00
2020,01,11,02,10,0.00
2020,01,11,02,11,0.00
2020,01,11,02,12,0.00
2020,01,11,02,13,0.00
2020,01,11,02,14,0.00
2020,01,11,02,15,0.00
2020,01,11,02,16,0.00
2020,01,11,02,17,0.00
2020,01,11,02,18,0.00
2020,01,11,02,19,0.00
2020,01,11,02,20,0.00
2020,01,11,02,21,0.00
2020,01,11,02,22,0.00
2020,01,11,02,23,0.00
2020,01,11,02,24,0.00
2020,01,11,02,25,0.00
2020,01,11,02,26,0.00
2020,01,11,02,27,0.00
2020,01,11,02,28,0.00
2020,01,11,02,29,0.00
2020,01,11,02,30,0.00
2020,01,11,02,31,0.00
2020,01,11,02,32,0.00
2020,01,11,02,33,0.00
2020,01,11,02,34,0.00
2020,01,11,02,35,0.00
2020,01,11,02,36,0.00
2020,01,11,02,37,0.00
2020,01,11,02,38,0.00
2020,01,11,02,39,0.00
2020,01,11,02,40,0.00
2020,01,11,02,41,0.00
2020,01,11,02,42,0.00
2020,01,11,02,43,0.00
2020,01,11,02,44,0.00
2020,01,11,02,45,0.00
2020,01,11,02,46,0.00
2020,01,11,02,47,0.00
2020,01,11,02,48,0.00
2020,01,11,02,49,0.00
2020,01,11,02,50,0.00
2020,01,11,02,51,0.00
2020,01,11,02,52,0.00
2020,01,11,02,53,0.00
2020,01,11,02,54,0.00
2020,01,11,02,55,0.00
2020,01,11,02,56,0.00
2020,01,11,02,57,0.00
2020,01,11,02,58,0.00
2020,01,11,02,59,0.00
2020,01,11,03,00,0.00
2020,01,11,03,01,0.00
2020,01,11,03,02,0.00
2020,01,11,03,03,0.00
2020,01,11,03,04,0.00
2020,01,11,03,05,0.00
2020,01,11,03,06,0.00
2020,01,11,03,07,0.00
2020,01,11,03,08,0.00
2020,01,11,03,09,0.00
2020,01,11,03,10,0.00
2020,01,11,03,11,0.00
2020,01,11,03,12,0.00
2020,01,11,03,13,0.00
2020,01,11,03,14,0.00
2020,01,11,03,15,0.00
2020,01,11,03,16,0.00
2020,01,11,03,17,0.00
2020,01,11,03,18,0.00
2020,01,11,03,19,0.00
2020,01,11,03,20,0.00
2020,01,11,03,21,0.00
2020,01,11,03,22,0.00
2020,01,11,03,23,0.00
2020,01,11,03,24,0.00
2020,01,11,03,25,0.00
2020,01,11,03,26,0.00
2020,01,11,03,27,0.00
2020,01,11,03,28,0.00
2020,01,11,03,29,0.00
2020,01,11,03,30,0.00
2020,01,11,03,31,0.00
2020,01,11,03,32,0.00
2020,01,11,03,33,0.00
2020,01,11,03,34,0.00
2020,01,11,03,35,0.00
2020,01,11,03,36,0.00
2020,01,11,03,37,0.00
2020,01,11,03,38,0.00
2020,01,11,03,39,0.00
2020,01,11,03,40,0.00
2020,01,11,03,41,0.00
2020,01,11,03,42,0.00
2020,01,11,03,43,0.00
2020,01,11,03,44,0.00
2020,01,11,03,45,0.00
2020,01,11,03,46,0.00
2020,01,11,03,47,0.00
2020,01,11,03,48,0.00
2020,01,11,03,49,0.00
2020,01,11,03,50,0.00
2020,01,11,03,51,0.00
2020,01,11,03,52,0.00
2020,01,11,03,53,0.00
2020,01,11,03,54,0.00
2020,01,11,03,55,0.00
2020,01,11,03,56,0.00
2020,01,11,03,57,0.00
2020,01,11,03,58,0.00
2020,01,11,03,59,0.00
2020,01,11,04,00,0.00
2020,01,11,04,01,0.00
2020,01,11,04,02,0.00
2020,01,11,04,03,0.00
2020,01,11,04,04,0.00
2020,01,11,04,05,0.00
2020,01,11,04,06,0.00
2020,01,11,04,07,0.00
2020,01,11,04,08,0.00
2020,01,11,04,09,0.00
2020,01,11,04,10,0.00
2020,01,11,04,11,0.00
2020,01,11,04,12,0.00
2020,01,11,04,13,0.00
2020,01,11,04,14,0.00
2020,01,11,04,15,0.00
2020,01,11,04,16,0.00
2020,01,11,04,17,0.00
2020,01,11,04,18,0.00
2020,01,11,04,19,0.00
2020,01,11,04,20,0.00
2020,01,11,04,21,0.00
2020,01,11,04,22,0.00
2020,01,11,04,23,0.00
2020,01,11,04,24,0.00
2020,01,11,04,25,0.00
2020,01,11,04,26,0.00
2020,01,11,04,27,0.00
2020,01,11,04,28,0.00
2020,01,11,04,29,0.00
2020,01,11,04,30,0.00
2020,01,11,04,31,0.00
2020,01,11,04,32,0.00
2020,01,11,04,33,0.00
2020,01,11,04,34,0.00
2020,01,11,04,35,0.00
2020,01,11,04,36,0.00
2020,01,11,04,37,0.00
2020,01,11,04,38,0.00
2020,01,11,04,39,0.00
2020,01,11,04,40,0.00
2020,01,11,04,41,0.00
2020,01,11,04,42,0.00
2020,01,11,04,43,0.00
2020,01,11,04,44,0.00
2020,01,11,04,45,0.00
2020,01,11,04,46,0.00
2020,01,11,04,47,0.00
2020,01,11,04,48,0.00
2020,01,11,04,49,0.00
2020,01,11,04,50,0.00
2020,01,11,04,51,0.00
2020,01,11,04,52,0.00
2020,01,11,04,53,0.00
2020,01,11,04,54,0.00
2020,01,11,04,55,0.00
2020,01,11,04,56,0.00
2020,01,11,04,57,0.00
2020,01,11,04,58,0.00
2020,01,11,04,59,0.00
2020,01,11,05,00,0.00
2020,01,11,05,01,0.00
2020,01,11,05,02,0.00
2020,01,11,05,03,0.00
2020,01,11,05,04,0.00
2020,01,11,05,05,0.00
2020,01,11,05,06,0.00
2020,01,11,05,07,0.00
2020,01,11,05,08,0.00
2020,01,11,05,09,0.00
2020,01,11,05,10,0.00
2020,01,11,05,11,0.00
2020,01,11,05,12,0.00
2020,01,11,05,13,0.00
2020,01,11,05,14,0.00
2020,01,11,05,15,0.00
2020,01,11,05,16,0.00
2020,01,11,05,17,0.00
2020,01,11,05,18,0.00
2020,01,11,05,19,0.00
2020,01,11,05,20,0.00
2020,01,11,05,21,0.00
2020,01,11,05,22,0.00
2020,01,11,05,23,0.00
2020,01,11,05,24,0.00
2020,01,11,05,25,0.00
2020,01,11,05,26,0.00
2020,01,11,05,27,0.00
2020,01,11,05,28,0.00
2020,01,11,05,29,0.00
2020,01,11,05,30,0.00
2020,01,11,05,31,0.00
2020,01,11,05,32,0.00
2020,01,11,05,33,0.00
2020,01,11,05,34,0.00
2020,01,11,05,35,0.00
2020,01,11,05,36,0.00
2020,01,11,05,37,0.00
2020,01,11,05,38,0.00
2020,01,11,05,39,0.00
2020,01,11,05,40,0.00
2020,01,11,05,41,0.00
2020,01,11,05,42,0.00
2020,01,11,05,43,0.00
2020,01,11,05,44,0.00
2020,01,11,05,45,0.00
2020,01,11,05,46,0.00
2020,01,11,05,47,0.00
2020,01,11,05,48,0.00
2020,01,11,05,49,0.00
2020,01,11,05,50,0.00
2020,01,11,05,51,0.00
2020,01,11,05,52,0.00
2020,01,11,05,53,0.00
2020,01,11,05,54,0.00
2020,01,11,05,55,0.00
2020,01,11,05,56,0.00
2020,01,11,05,57,0.00
2020,01,11,05,58,0.00
2020,01,11,05,59,0.00
2020,01,11,06,00,0.00
2020,01,11,06,01,0.00
2020,01,11,06,02,0.00
2020,01,11,06,03,0.00
2020,01,11,06,04,0.00
2020,01,11,06,05,0.00
2020,01,11,06,06,0.00
2020,01,11,06,07,0.00
2020,01,11,06,08,0.00
2020,01,11,06,09,0.00
2020,01,11,06,10,0.00
2020,01,11,06,11,0.00
2020,01,11,06,12,0.00
2020,01,11,06,13,0.00
2020,01,11,06,14,0.00
2020,01,11,06,15,0.00
2020,01,11,06,16,0.00
2020,01,11,06,17,0.00
2020,01,11,06,18,0.00
2020,01,11,06,19,0.00
2020,01,11,06,20,0.00
2020,01,11,06,21,0.00
2020,01,11,06,22,0.00
2020,01,11,06,23,0.00
2020,01,11,06,24,0.00
2020,01,11,06,25,0.00
2020,01,11,06,26,0.00
2020,01,11,06,27,0.00
2020,01,11,06,28,0.00
2020,01,11,06,29,0.00
2020,01,11,06,30,0.00
2020,01,11,06,31,0.60
2020,01,11,06,32,17.20
2020,01,11,06,33,16.30
2020,01,11,06,34,13.70
2020,01,11,06,35,15.10
2020,01,11,06,36,14.80
2020,01,11,06,37,15.70
2020,01,11,06,38,10.50
2020,01,11,06,39,16.60
2020,01,11,06,40,14.40
2020,01,11,06,41,12.20
2020,01,11,06,42,13.40
2020,01,11,06,43,14.70
2020,01,11,06,44,14.60
2020,01,11,06,45,14.50
2020,01,11,06,46,14.20
2020,01,11,06,47,12.80
2020,01,11,06,48,15.50
2020,01,11,06,49,14.10
2020,01,11,06,50,15.50
2020,01,11,06,51,17.10
2020,01,11,06,52,16.80
2020,01,11,06,53,14.90
2020,01,11,06,54,13.10
2020,01,11,06,55,16.50
2020,01,11,06,56,16.80
2020,01,11,06,57,16.30
2020,01,11,06,58,17.80
2020,01,11,06,59,18.80
2020,01,11,07,00,15.40
2020,01,11,07,01,18.00
2020,01,11,07,02,13.20
2020,01,11,07,03,21.80
2020,01,11,07,04,19.00
2020,01,11,07,05,18.20
2020,01,11,07,06,16.80
2020,01,11,07,07,14.90
2020,01,11,07,08,13.40
2020,01,11,07,09,17.20
2020,01,11,07,10,25.60
2020,01,11,07,11,22.20
2020,01,11,07,12,17.40
2020,01,11,07,13,23.00
2020,01,11,07,14,17.90
2020,01,11,07,15,18.10
2020,01,11,07,16,22.70
2020,01,11,07,17,20.70
2020,01,11,07,18,13.00
2020,01,11,07,19,16.40
2020,01,11,07,20,17.50
2020,01,11,07,21,15.00
2020,01,11,07,22,22.60
2020,01,11,07,23,18.90
2020,01,11,07,24,20.40
2020,01,11,07,25,19.40
2020,01,11,07,26,19.20
2020,01,11,07,27,16.90
2020,01,11,07,28,14.60
2020,01,11,07,29,14.50
2020,01,11,07,30,11.30
2020,01,11,07,31,13.80
2020,01,11,07,32,15.90
2020,01,11,07,33,17.80
2020,01,11,07,34,18.40
2020,01,11,07,35,16.30
2020,01,11,07,36,19.80
2020,01,11,07,37,21.70
2020,01,11,07,38,24.10
2020,01,11,07,39,19.70
2020,01,11,07,40,24.40
2020,01,11,07,41,18.90
2020,01,11,07,42,20.50
2020,01,11,07,43,17.70
2020,01,11,07,44,24.80
2020,01,11,07,45,23.00
2020,01,11,07,46,15.70
2020,01,11,07,47,16.80
2020,01,11,07,48,16.70
2020,01,11,07,49,24.00
2020,01,11,07,50,20.30
2020,01,11,07,51,14.00
2020,01,11,07,52,19.30
2020,01,11,07,53,14.80
2020,01,11,07,54,18.60
2020,01,11,07,55,18.20
2020,01,11,07,56,20.70
2020,01,11,07,57,15.90
2020,01,11,07,58,22.80
2020,01,11,07,59,19.10
2020,01,11,08,00,19.40
2020,01,11,08,01,12.80
2020,01,11,08,02,13.90
2020,01,11,08,03,14.40
2020,01,11,08,04,13.00
2020,01,11,08,05,12.90
2020,01,11,08,06,13.90
2020,01,11,08,07,13.00
2020,01,11,08,08,13.80
2020,01,11,08,09,11.60
2020,01,11,08,10,11.80
2020,01,11,08,11,9.20
2020,01,11,08,12,12.70
2020,01,11,08,13,12.10
2020,01,11,08,14,11.90
2020,01,11,08,15,14.00
2020,01,11,08,16,15.30
2020,01,11,08,17,16.10
2020,01,11,08,18,12.50
2020,01,11,08,19,14.90
2020,01,11,08,20,13.10
2020,01,11,08,21,17.30
2020,01,11,08,22,14.90
2020,01,11,08,23,12.30
2020,01,11,08,24,9.80
2020,01,11,08,25,11.20
2020,01,11,08,26,11.70
2020,01,11,08,27,13.10
2020,01,11,08,28,12.40
2020,01,11,08,29,13.80
2020,01,11,08,30,16.70
2020,01,11,08,31,14.50
2020,01,11,08,32,10.70
2020,01,11,08,33,14.30
2020,01,11,08,34,12.20
2020,01,11,08,35,10.30
2020,01,11,08,36,12.80
2020,01,11,08,37,8.90
2020,01,11,08,38,12.30
2020,01,11,08,39,8.10
2020,01,11,08,40,12.90
2020,01,11,08,41,12.40
2020,01,11,08,42,11.70
2020,01,11,08,43,12.30
2020,01,11,08,44,12.80
2020,01,11,08,45,13.90
2020,01,11,08,46,11.20
2020,01,11,08,47,10.50
2020,01,11,08,48,13.10
2020,01,11,08,49,11.90
2020,01,11,08,50,12.20
2020,01,11,08,51,17.00
2020,01,11,08,52,11.60
2020,01,11,08,53,14.00
2020,01,11,08,54,12.90
2020,01,11,08,55,10.20
2020,01,11,08,56,10.10
2020,01,11,08,57,15.60
2020,01,11,08,58,13.10
2020,01,11,08,59,13.60
2020,01,11,09,00,14.70
2020,01,11,09,01,14.00
2020,01,11,09,02,14.30
2020,01,11,09,03,13.50
2020,01,11,09,04,13.90
2020,01,11,09,05,15.70
2020,01,11,09,06,13.10
2020,01,11,09,07,16.40
2020,01,11,09,08,15.70
2020,01,11,09,09,19.90
2020,01,11,09,10,15.50
2020,01,11,09,11,13.30
2020,01,11,09,12,13.20
2020,01,11,09,13,17.60
2020,01,11,09,14,16.00
2020,01,11,09,15,15.10
2020,01,11,09,16,15.70
2020,01,11,09,17,18.00
2020,01,11,09,18,21.50
2020,01,11,09,19,22.90
2020,01,11,09,20,19.00
2020,01,11,09,21,14.20
2020,01,11,09,22,16.50
2020,01,11,09,23,16.70
2020,01,11,09,24,18.70
2020,01,11,09,25,16.10
2020,01,11,09,26,16.20
2020,01,11,09,27,15.40
2020,01,11,09,28,18.30
2020,01,11,09,29,22.20
2020,01,11,09,30,20.50
2020,01,11,09,31,23.40
2020,01,11,09,32,20.00
2020,01,11,09,33,18.50
2020,01,11,09,34,17.60
2020,01,11,09,35,20.30
2020,01,11,09,36,15.20
2020,01,11,09,37,16.20
2020,01,11,09,38,21.00
2020,01,11,09,39,18.20
2020,01,11,09,40,15.20
2020,01,11,09,41,17.30
2020,01,11,09,42,19.60
2020,01,11,09,43,23.40
2020,01,11,09,44,18.10
2020,01,11,09,45,27.20
2020,01,11,09,46,25.20
2020,01,11,09,47,20.20
2020,01,11,09,48,19.10
2020,01,11,09,49,16.50
2020,01,11,09,50,21.00
2020,01,11,09,51,17.50
2020,01,11,09,52,17.90
2020,01,11,09,53,15.80
2020,01,11,09,54,14.90
2020,01,11,09,55,19.30
2020,01,11,09,56,16.40
2020,01,11,09,57,18.00
2020,01,11,09,58,20.40
2020,01,11,09,59,20.70
2020,01,11,10,00,17.10
2020,01,11,10,01,17.30
2020,01,11,10,02,19.30
2020,01,11,10,03,20.10
2020,01,11,10,04,18.40
2020,01,11,10,05,19.90
2020,01,11,10,06,19.70
2020,01,11,10,07,16.80
2020,01,11,10,08,24.90
2020,01,11,10,09,16.50
2020,01,11,10,10,19.90
2020,01,11,10,11,24.20
2020,01,11,10,12,23.80
2020,01,11,10,13,23.00
2020,01,11,10,14,20.50
2020,01,11,10,15,24.20
2020,01,11,10,16,17.00
2020,01,11,10,17,23.00
2020,01,11,10,18,23.40
2020,01,11,10,19,21.00
2020,01,11,10,20,20.90
2020,01,11,10,21,24.60
2020,01,11,10,22,24.10
2020,01,11,10,23,18.80
2020,01,11,10,24,16.40
2020,01,11,10,25,15.80
2020,01,11,10,26,23.50
2020,01,11,10,27,18.60
2020,01,11,10,28,12.50
2020,01,11,10,29,18.80
2020,01,11,10,30,18.30
2020,01,11,10,31,23.10
2020,01,11,10,32,23.80
2020,01,11,10,33,20.10
2020,01,11,10,34,13.80
2020,01,11,10,35,17.30
2020,01,11,10,36,21.10
2020,01,11,10,37,9.50
2020,01,11,10,38,18.20
2020,01,11,10,39,18.50
2020,01,11,10,40,18.70
2020,01,11,10,41,14.60
2020,01,11,10,42,9.00
2020,01,11,10,43,7.50
2020,01,11,10,44,6.50
2020,01,11,10,45,12.50
2020,01,11,10,46,9.70
2020,01,11,10,47,11.90
2020,01,11,10,48,19.80
2020,01,11,10,49,14.30
2020,01,11,10,50,16.80
2020,01,11,10,51,18.40
2020,01,11,10,52,16.70
2020,01,11,10,53,21.60
2020,01,11,10,54,17.60
2020,01,11,10,55,19.60
2020,01,11,10,56,16.90
2020,01,11,10,57,20.10
2020,01,11,10,58,16.00
2020,01,11,10,59,14.30
2020,01,11,11,00,10.20
2020,01,11,11,01,15.20
2020,01,11,11,02,10.30
2020,01,11,11,03,0.00
2020,01,11,11,04,7.30
2020,01,11,11,05,9.80
2020,01,11,11,06,13.40
2020,01,11,11,07,17.60
2020,01,11,11,08,16.50
2020,01,11,11,09,17.30
2020,01,11,11,10,21.20
2020,01,11,11,11,18.40
2020,01,11,11,12,13.60
2020,01,11,11,13,14.50
2020,01,11,11,14,9.10
2020,01,11,11,15,8.20
2020,01,11,11,16,16.30
2020,01,11,11,17,23.00
2020,01,11,11,18,17.30
2020,01,11,11,19,13.90
2020,01,11,11,20,21.20
2020,01,11,11,21,24.40
2020,01,11,11,22,29.00
2020,01,11,11,23,24.90
2020,01,11,11,24,18.90
2020,01,11,11,25,19.30
2020,01,11,11,26,20.60
2020,01,11,11,27,26.70
2020,01,11,11,28,18.40
2020,01,11,11,29,17.50
2020,01,11,11,30,18.50
2020,01,11,11,31,20.00
2020,01,11,11,32,20.30
2020,01,11,11,33,16.70
2020,01,11,11,34,20.20
2020,01,11,11,35,19.70
2020,01,11,11,36,18.10
2020,01,11,11,37,15.50
2020,01,11,11,38,16.50
2020,01,11,11,39,16.20
2020,01,11,11,40,14.90
2020,01,11,11,41,12.90
2020,01,11,11,42,17.50
2020,01,11,11,43,9.70
2020,01,11,11,44,19.30
2020,01,11,11,45,9.20
2020,01,11,11,46,15.50
2020,01,11,11,47,18.20
2020,01,11,11,48,10.50
2020,01,11,11,49,6.80
2020,01,11,11,50,0.70
2020,01,11,11,51,11.10
2020,01,11,11,52,13.30
2020,01,11,11,53,19.10
2020,01,11,11,54,19.30
2020,01,11,11,55,24.50
2020,01,11,11,56,9.80
2020,01,11,11,57,14.80
2020,01,11,11,58,12.40
2020,01,11,11,59,11.70
2020,01,11,12,00,5.60
2020,01,11,12,01,14.10
2020,01,11,12,02,20.50
2020,01,11,12,03,17.60
2020,01,11,12,04,4.90
2020,01,11,12,05,6.40
2020,01,11,12,06,17.70
2020,01,11,12,07,19.10
2020,01,11,12,08,19.30
2020,01,11,12,09,17.80
2020,01,11,12,10,19.70
2020,01,11,12,11,0.10
2020,01,11,12,12,1.10
2020,01,11,12,13,15.10
2020,01,11,12,14,12.00
2020,01,11,12,15,15.90
2020,01,11,12,16,23.40
2020,01,11,12,17,12.80
2020,01,11,12,18,9.20
2020,01,11,12,19,21.70
2020,01,11,12,20,16.90
2020,01,11,12,21,5.60
2020,01,11,12,22,13.80
2020,01,11,12,23,21.80
2020,01,11,12,24,13.70
2020,01,11,12,25,24.10
2020,01,11,12,26,20.40
2020,01,11,12,27,26.70
2020,01,11,12,28,22.60
2020,01,11,12,29,24.00
2020,01,11,12,30,20.70
2020,01,11,12,31,20.10
2020,01,11,12,32,17.10
2020,01,11,12,33,19.70
2020,01,11,12,34,30.70
2020,01,11,12,35,31.30
2020,01,11,12,36,26.20
2020,01,11,12,37,28.70
2020,01,11,12,38,23.00
2020,01,11,12,39,24.80
2020,01,11,12,40,20.00
2020,01,11,12,41,19.60
2020,01,11,12,42,21.80
2020,01,11,12,43,23.10
2020,01,11,12,44,23.90
2020,01,11,12,45,29.20
2020,01,11,12,46,22.70
2020,01,11,12,47,18.20
2020,01,11,12,48,13.40
2020,01,11,12,49,13.10
2020,01,11,12,50,20.70
2020,01,11,12,51,19.20
2020,01,11,12,52,1.40
2020,01,11,12,53,21.10
2020,01,11,12,54,22.10
2020,01,11,12,55,26.00
2020,01,11,12,56,20.40
2020,01,11,12,57,19.50
2020,01,11,12,58,22.50
2020,01,11,12,59,19.90
2020,01,11,13,00,11.10
2020,01,11,13,01,12.30
2020,01,11,13,02,8.40
2020,01,11,13,03,17.80
2020,01,11,13,04,13.30
2020,01,11,13,05,35.50
2020,01,11,13,06,26.10
2020,01,11,13,07,30.80
2020,01,11,13,08,24.30
2020,01,11,13,09,26.60
2020,01,11,13,10,19.70
2020,01,11,13,11,22.60
2020,01,11,13,12,13.20
2020,01,11,13,13,22.20
2020,01,11,13,14,24.60
2020,01,11,13,15,26.80
2020,01,11,13,16,24.70
2020,01,11,13,17,9.90
2020,01,11,13,18,10.50
2020,01,11,13,19,20.10
2020,01,11,13,20,0.10
2020,01,11,13,21,20.90
2020,01,11,13,22,23.10
2020,01,11,13,23,5.70
2020,01,11,13,24,16.50
2020,01,11,13,25,4.50
2020,01,11,13,26,9.80
2020,01,11,13,27,26.60
2020,01,11,13,28,0.70
2020,01,11,13,29,9.30
2020,01,11,13,30,17.10
2020,01,11,13,31,4.60
2020,01,11,13,32,1.90
2020,01,11,13,33,9.10
2020,01,11,13,34,18.80
2020,01,11,13,35,2.00
2020,01,11,13,36,9.30
2020,01,11,13,37,20.00
2020,01,11,13,38,23.50
2020,01,11,13,39,9.70
2020,01,11,13,40,6.90
2020,01,11,13,41,17.80
2020,01,11,13,42,6.90
2020,01,11,13,43,17.70
2020,01,11,13,44,26.60
2020,01,11,13,45,10.70
2020,01,11,13,46,0.10
2020,01,11,13,47,2.10
2020,01,11,13,48,0.10
2020,01,11,13,49,0.00
2020,01,11,13,50,4.10
2020,01,11,13,51,13.40
2020,01,11,13,52,28.00
2020,01,11,13,53,4.80
2020,01,11,13,54,9.80
2020,01,11,13,55,0.40
2020,01,11,13,56,10.50
2020,01,11,13,57,19.10
2020,01,11,13,58,8.30
2020,01,11,13,59,6.40
2020,01,11,14,00,0.10
2020,01,11,14,01,0.10
2020,01,11,14,02,0.00
2020,01,11,14,03,16.70
2020,01,11,14,04,9.60
2020,01,11,14,05,4.30
2020,01,11,14,06,17.50
2020,01,11,14,07,11.10
2020,01,11,14,08,0.00
2020,01,11,14,09,8.20
2020,01,11,14,10,1.00
2020,01,11,14,11,28.80
2020,01,11,14,12,23.10
2020,01,11,14,13,22.50
2020,01,11,14,14,7.00
2020,01,11,14,15,5.80
2020,01,11,14,16,15.70
2020,01,11,14,17,1.00
2020,01,11,14,18,12.30
2020,01,11,14,19,0.10
2020,01,11,14,20,14.40
2020,01,11,14,21,20.90
2020,01,11,14,22,15.20
2020,01,11,14,23,0.10
2020,01,11,14,24,14.90
2020,01,11,14,25,8.00
2020,01,11,14,26,5.40
2020,01,11,14,27,0.90
2020,01,11,14,28,2.20
2020,01,11,14,29,6.40
2020,01,11,14,30,2.40
2020,01,11,14,31,6.80
2020,01,11,14,32,7.30
2020,01,11,14,33,5.60
2020,01,11,14,34,0.90
2020,01,11,14,35,10.50
2020,01,11,14,36,0.00
2020,01,11,14,37,0.00
2020,01,11,14,38,6.90
2020,01,11,14,39,1.40
2020,01,11,14,40,2.10
2020,01,11,14,41,6.70
2020,01,11,14,42,1.50
2020,01,11,14,43,1.50
2020,01,11,14,44,0.00
2020,01,11,14,45,0.10
2020,01,11,14,46,3.50
2020,01,11,14,47,4.90
2020,01,11,14,48,4.60
2020,01,11,14,49,5.40
2020,01,11,14,50,0.10
2020,01,11,14,51,0.00
2020,01,11,14,52,1.30
2020,01,11,14,53,9.30
2020,01,11,14,54,3.90
2020,01,11,14,55,0.80
2020,01,11,14,56,1.30
2020,01,11,14,57,0.00
2020,01,11,14,58,0.10
2020,01,11,14,59,0.00
2020,01,11,15,00,0.10
2020,01,11,15,01,0.00
2020,01,11,15,02,0.00
2020,01,11,15,03,0.00
2020,01,11,15,04,0.90
2020,01,11,15,05,2.50
2020,01,11,15,06,1.20
2020,01,11,15,07,4.30
2020,01,11,15,08,0.00
2020,01,11,15,09,10.00
2020,01,11,15,10,7.60
2020,01,11,15,11,0.00
2020,01,11,15,12,0.00
2020,01,11,15,13,0.00
2020,01,11,15,14,0.00
2020,01,11,15,15,0.00
2020,01,11,15,16,0.00
2020,01,11,15,17,1.30
2020,01,11,15,18,0.00
2020,01,11,15,19,2.30
2020,01,11,15,20,1.70
2020,01,11,15,21,0.10
2020,01,11,15,22,0.10
2020,01,11,15,23,0.00
2020,01,11,15,24,3.00
2020,01,11,15,25,2.10
2020,01,11,15,26,0.90
2020,01,11,15,27,0.00
2020,01,11,15,28,0.00
2020,01,11,15,29,0.00
2020,01,11,15,30,0.10
2020,01,11,15,31,0.10
2020,01,11,15,32,12.60
2020,01,11,15,33,1.10
2020,01,11,15,34,0.00
2020,01,11,15,35,0.10
2020,01,11,15,36,1.40
2020,01,11,15,37,2.10
2020,01,11,15,38,0.00
2020,01,11,15,39,0.00
2020,01,11,15,40,0.00
2020,01,11,15,41,0.10
2020,01,11,15,42,4.30
2020,01,11,15,43,1.90
2020,01,11,15,44,1.80
2020,01,11,15,45,0.00
2020,01,11,15,46,0.00
2020,01,11,15,47,0.00
2020,01,11,15,48,0.00
2020,01,11,15,49,0.00
2020,01,11,15,50,0.00
2020,01,11,15,51,0.00
2020,01,11,15,52,0.00
2020,01,11,15,53,0.90
2020,01,11,15,54,0.00
2020,01,11,15,55,0.00
2020,01,11,15,56,0.00
2020,01,11,15,57,1.40
2020,01,11,15,58,0.00
2020,01,11,15,59,0.00
2020,01,11,16,00,0.10
2020,01,11,16,01,1.00
2020,01,11,16,02,0.70
2020,01,11,16,03,0.10
2020,01,11,16,04,0.10
2020,01,11,16,05,0.00
2020,01,11,16,06,0.00
2020,01,11,16,07,2.30
2020,01,11,16,08,2.20
2020,01,11,16,09,0.00
2020,01,11,16,10,0.00
2020,01,11,16,11,0.00
2020,01,11,16,12,1.00
2020,01,11,16,13,0.00
2020,01,11,16,14,0.00
2020,01,11,16,15,3.40
2020,01,11,16,16,0.00
2020,01,11,16,17,2.10
2020,01,11,16,18,0.10
2020,01,11,16,19,1.90
2020,01,11,16,20,1.70
2020,01,11,16,21,1.50
2020,01,11,16,22,0.00
2020,01,11,16,23,0.00
2020,01,11,16,24,0.00
2020,01,11,16,25,0.00
2020,01,11,16,26,0.00
2020,01,11,16,27,0.00
2020,01,11,16,28,0.00
2020,01,11,16,29,0.00
2020,01,11,16,30,0.00
2020,01,11,16,31,0.00
2020,01,11,16,32,0.00
2020,01,11,16,33,0.00
2020,01,11,16,34,0.00
2020,01,11,16,35,0.00
2020,01,11,16,36,0.00
2020,01,11,16,37,0.00
2020,01,11,16,38,0.00
2020,01,11,16,39,0.10
2020,01,11,16,40,3.80
2020,01,11,16,41,0.40
2020,01,11,16,42,0.00
2020,01,11,16,43,1.70
2020,01,11,16,44,0.50
2020,01,11,16,45,0.00
2020,01,11,16,46,0.00
2020,01,11,16,47,0.00
2020,01,11,16,48,0.00
2020,01,11,16,49,0.00
2020,01,11,16,50,0.00
2020,01,11,16,51,0.00
2020,01,11,16,52,0.00
2020,01,11,16,53,0.00
2020,01,11,16,54,0.00
2020,01,11,16,55,0.00
2020,01,11,16,56,0.00
2020,01,11,16,57,0.00
2020,01,11,16,58,0.00
2020,01,11,16,59,0.00
2020,01,11,17,00,0.00
2020,01,11,17,01,0.00
2020,01,11,17,02,0.20
2020,01,11,17,03,0.00
2020,01,11,17,04,0.00
2020,01,11,17,05,0.00
2020,01,11,17,06,0.10
2020,01,11,17,07,0.00
2020,01,11,17,08,0.00
2020,01,11,17,09,0.00
2020,01,11,17,10,0.00
2020,01,11,17,11,0.00
2020,01,11,17,12,0.00
2020,01,11,17,13,0.80
2020,01,11,17,14,0.20
2020,01,11,17,15,0.00
2020,01,11,17,16,0.00
2020,01,11,17,17,0.00
2020,01,11,17,18,0.00
2020,01,11,17,19,0.20
2020,01,11,17,20,0.00
2020,01,11,17,21,1.60
2020,01,11,17,22,2.80
2020,01,11,17,23,1.40
2020,01,11,17,24,0.80
2020,01,11,17,25,2.50
2020,01,11,17,26,0.00
2020,01,11,17,27,0.10
2020,01,11,17,28,0.00
2020,01,11,17,29,0.10
2020,01,11,17,30,0.00
2020,01,11,17,31,0.00
2020,01,11,17,32,0.00
2020,01,11,17,33,0.00
2020,01,11,17,34,0.00
2020,01,11,17,35,0.00
2020,01,11,17,36,0.00
2020,01,11,17,37,0.00
2020,01,11,17,38,0.00
2020,01,11,17,39,0.00
2020,01,11,17,40,0.00
2020,01,11,17,41,0.10
2020,01,11,17,42,0.00
2020,01,11,17,43,0.00
2020,01,11,17,44,0.70
2020,01,11,17,45,0.50
2020,01,11,17,46,0.00
2020,01,11,17,47,0.00
2020,01,11,17,48,0.00